Location: Ottawa
(45.4167°N, 75.7000°W)
Time: 19:46:20
(UTC-04:00)

OTV 5 (USA 277) - Pass Details

Date: 16 October 2017
Orbit: 404 x 417 km, 43.0° (Epoch: 07 September)

Event Time Altitude Azimuth Distance (km) Brightness Sun altitude
Rises 21:05:21 0° 274° (W) 2,356 ? -30.3°
Reaches altitude 10° 21:07:35 10° 264° (W) 1,491 ? -30.7°
Enters shadow 21:07:46 11° 263° (W) 1,428 ? -30.7°
